Flag for Germany Weather past 2 weeks in Zeitz, Saxony-Anhalt, Germany

Now
74 °F

Passing clouds.


Feels Like: 77 °F
Forecast: 55 / 86 °F
Wind: 2 mph from Northeast

Location: Gera-Leumnitz

Current Time: Aug 2, 2015 at 9:31:56 PM

Latest Report: Aug 2, 2015 at 9:00 PM


Visibility: 34 mi

Pressure: 30.07 "Hg

Humidity: 40%

Dew point: 48 °F

Location of ZeitzLocation

Historic Weather in Zeitz — Graph

°F

Zeitz temperature yesterday

Maximum temperature yesterday: 77 °F (at 4:00 PM)
Minimum temperature yesterday: 50 °F (at 6:00 AM)
Average temperature yesterday: 63 °F

Past Weeks' High & Low Weather Summary

 TemperatureHumidityPressure
High89 °F (Jul 22, 4:00 PM)100% (Jul 19, 4:00 AM)30.12 "Hg (Jul 19, 4:00 AM)
Low47 °F (Jul 31, 5:00 AM)28% (Aug 1, 5:00 PM)29.60 "Hg (Jul 27, 1:00 PM)
Average66 °F64%29.88 "Hg
* Reported Jul 18 8:00 PM — Aug 2 8:00 PM, Zeitz, Weather by CustomWeather, © 2015

Note: Actual official high and low records may vary slightly from our data, if they occured in-between our weather recording intervals... More about our weather records

Advertising

Zeitz weather history for previous 24 hours

 ConditionsComfort  
Time TempWeatherWind HumidityBarometerVisibility
8:00 PM
Sun, Aug 2
78 °FPartly sunny.2 mph34%30.05 "Hg34 mi
7:00 PM80 °FPartly sunny.2 mph31%30.05 "Hg37 mi
6:00 PM81 °FScattered clouds.2 mph30%30.05 "Hg37 mi
5:00 PM82 °FScattered clouds.2 mph30%30.05 "Hg37 mi
4:00 PM80 °FPassing clouds.3 mph31%30.06 "Hg37 mi
3:00 PM80 °FPassing clouds.3 mph29%30.07 "Hg34 mi
2:00 PM79 °FPassing clouds.3 mph33%30.09 "Hg31 mi
1:00 PM77 °FPassing clouds.3 mph33%30.09 "Hg28 mi
12:00 PM76 °FPassing clouds.3 mph36%30.09 "Hg25 mi
11:00 AM73 °FScattered clouds.3 mph45%30.09 "Hg22 mi
10:00 AM71 °FPassing clouds.3 mph48%30.09 "Hg22 mi
9:00 AM65 °FScattered clouds.5 mph61%30.09 "Hg22 mi
8:00 AM60 °FScattered clouds.2 mph71%30.08 "Hg25 mi
7:00 AM55 °FScattered clouds.3 mph86%30.07 "Hg22 mi
6:00 AM53 °FScattered clouds.3 mph88%30.06 "Hg17 mi
5:00 AM55 °FOvercast.2 mph84%30.06 "Hg13 mi
4:00 AM55 °FOvercast.2 mph84%30.04 "Hg14 mi
2:00 AM59 °FOvercast.3 mph73%30.02 "Hg22 mi
1:00 AM60 °FOvercast.3 mph69%30.02 "Hg25 mi
11:00 PM
Sat, Aug 1
66 °FOvercast.2 mph54%29.99 "Hg28 mi
10:00 PM66 °FOvercast.3 mph54%29.98 "Hg31 mi
9:00 PM67 °FOvercast.3 mph55%29.96 "Hg34 mi
Weather by CustomWeather, © 2015

See weather overviewHow to use our weather pages